sat.trackr.live / text

‹ back to catalog

STARLINK-31178

NORAD 59025 · 2024-038C

PAYLOAD ACTIVE UNKNOWN

§ Identity

Operator
Country
US
Launch date
2024-02-25
Launch site
AFETR
Launch vehicle
Mass (kg)
RCS (m²)

Purposes: comms

External: N2YO · Heavens-Above · Gunter

§ Orbital elements

Epoch: 2026-05-25T04:12:03.291840Z

Period
94.27 min
Inclination
43.0040°
Eccentricity
0.0000589
Mean motion
15.27580195 rev/d
Perigee alt
482.6 km
Apogee alt
483.5 km
Semi-major
6,861.2 km
B*
2.3168e-5
RAAN
315.2391°
Arg perigee
281.6943°
Mean anomaly
78.3843°
Rev number
12,634

§ Raw data

STARLINK-311781 59025U 24038C   26145.17503810  .00000376  00000+0  23168-4 0  99902 59025  43.0040 315.2391 0000589 281.6943  78.3843 15.27580195126345

JSON: /api/v1/satellites/59025 · /tle

For live sub-satellite position, see the globe view (requires WebGL).

§ Visibility from observer

Set your observer location to see the next 7 days of passes ≥ 10°. The values pass through the URL so the page stays shareable.

No JS? Fill the form by hand. The geolocation button needs JavaScript.